Charlottesville, VA

1:15 PM EDT on June 25, 2017 (GMT -0400)
Charlottesville-Albemarle

Weather History for KCHO - April, 2012

Change the Weather History Date:

Thursday, April 12, 2012

  Actual Average Record
Temperature  
Mean Temperature 50 °F 54 °F  
Max Temperature 62 °F 67 °F 94 °F (1930)
Min Temperature 38 °F 43 °F 27 °F (1976)
Degree Days  
Heating Degree Days 15 11  
Month to date heating degree days 125 150  
Since 1 July heating degree days 3170 4154  
Cooling Degree Days 0 1  
Month to date cooling degree days 2 4  
Year to date cooling degree days 20 6  
Moisture  
Dew Point 28 °F    
Average Humidity 48    
Maximum Humidity 70    
Minimum Humidity 25    
Precipitation  
Precipitation 0.00 in 0.12 in 1.73 in (2004)
Month to date precipitation T 1.39  
Year to date precipitation 8.65 10.52  
Sea Level Pressure  
Sea Level Pressure 30.14 in    
Wind  
Wind Speed 6 mph (NNW)    
Max Wind Speed 14 mph    
Max Gust Speed 21 mph    
Visibility 10 miles    
Events      
T = Trace of Precipitation, MM = Missing Value Source: NWS Daily Summary

Daily Weather History Graph

Daily Weather History Graph

Search for Another Location

Airport or City:

Trip Planner

Search our weather history database for the weather conditions in past years. The results will help you decide how hot, cold, wet, or windy it might be!

Date:

Astronomy

Apr. 12, 2012 Rise Set
Actual Time 6:41 AM EDT 7:47 PM EDT
Civil Twilight 6:14 AM EDT 8:14 PM EDT
Nautical Twilight 5:42 AM EDT 8:47 PM EDT
Astronomical Twilight 5:09 AM EDT 9:20 PM EDT
Moon 1:30 AM EDT (4/12) 11:37 AM EDT (4/12)
Length of Visible Light 14h 00m
Length of Day
13h 05m
Waning Gibbous, 59% of the Moon is Illuminated
Apr 12
Waning Gibbous
Apr 13
Last Quarter
Apr 21
New
Apr 29
First Quarter
May 5
Full

Hourly Weather History & Observations

Time (EDT) Temp. Windchill Dew Point Humidity Pressure Visibility Wind Dir Wind Speed Gust Speed Precip Events Conditions
12:53 AM 43.0 °F - 28.0 °F 56% 30.11 in 10.0 mi Calm Calm - N/A   Clear
1:53 AM 39.0 °F - 28.9 °F 67% 30.10 in 10.0 mi Calm Calm - N/A   Clear
2:53 AM 44.1 °F 40.8 °F 28.0 °F 53% 30.08 in 10.0 mi Variable 5.8 mph 20.7 mph N/A   Clear
3:53 AM 43.0 °F 41.3 °F 28.0 °F 56% 30.09 in 10.0 mi Variable 3.5 mph - N/A   Clear
4:53 AM 41.0 °F 39.0 °F 28.9 °F 62% 30.10 in 10.0 mi NW 3.5 mph - N/A   Clear
5:53 AM 42.1 °F 37.7 °F 28.9 °F 60% 30.11 in 10.0 mi NNW 6.9 mph - N/A   Clear
6:53 AM 41.0 °F 36.4 °F 28.9 °F 62% 30.14 in 10.0 mi North 6.9 mph - N/A   Clear
7:53 AM 45.0 °F 38.5 °F 30.0 °F 56% 30.16 in 10.0 mi NW 13.8 mph - N/A   Clear
8:53 AM 48.0 °F - 28.9 °F 48% 30.17 in 10.0 mi NW 13.8 mph - N/A   Clear
9:53 AM 50.0 °F - 28.9 °F 44% 30.19 in 10.0 mi Variable 5.8 mph - N/A   Clear
10:53 AM 53.1 °F - 28.0 °F 38% 30.19 in 10.0 mi NNW 11.5 mph - N/A   Scattered Clouds
11:53 AM 55.0 °F - 28.0 °F 35% 30.19 in 10.0 mi NNW 11.5 mph - N/A   Partly Cloudy
12:53 PM 57.9 °F - 26.1 °F 30% 30.17 in 10.0 mi North 11.5 mph - N/A   Scattered Clouds
1:53 PM 59.0 °F - 26.1 °F 28% 30.16 in 10.0 mi NNW 11.5 mph 20.7 mph N/A   Partly Cloudy
2:53 PM 60.1 °F - 25.0 °F 26% 30.13 in 10.0 mi Variable 5.8 mph - N/A   Partly Cloudy
3:53 PM 61.0 °F - 26.1 °F 26% 30.11 in 10.0 mi Variable 4.6 mph - N/A   Scattered Clouds
4:53 PM 60.8 °F - 24.8 °F 25% 30.11 in 10.0 mi Variable 4.6 mph - N/A   Clear
5:36 PM 60.8 °F - 24.8 °F 25% 30.11 in 10.0 mi North 13.8 mph - N/A   Clear
5:53 PM 60.1 °F - 25.0 °F 26% 30.11 in 10.0 mi North 13.8 mph - N/A   Clear
6:53 PM 57.9 °F - 27.0 °F 31% 30.11 in 10.0 mi North 11.5 mph - N/A   Clear
7:53 PM 53.1 °F - 28.9 °F 40% 30.12 in 10.0 mi Calm Calm - N/A   Clear
8:53 PM 48.0 °F - 28.9 °F 48% 30.14 in 10.0 mi Calm Calm - N/A   Clear
9:53 PM 45.0 °F - 30.0 °F 56% 30.17 in 10.0 mi Calm Calm - N/A   Clear
10:53 PM 44.1 °F - 30.9 °F 60% 30.18 in 10.0 mi Calm Calm - N/A   Clear
11:53 PM 41.0 °F - 32.0 °F 70% 30.19 in 10.0 mi Calm Calm - N/A   Clear